Voltar ao catálogo

STARLINK-6055

AtivoComunicaçõesVLEO
NORAD 56467·PAYLOAD·🇺🇸 United States

Lançado May 10, 2023 de Vandenberg Space Force Base

Loading…

Próximas Passagens (próximas 24 horas)

TLE

AtualizadoSource: CelesTrak SupGP

Época: Sep 15, 2026, 01:33 UTC

1 56467C 23064V   26258.06506944  .00492610  00000+0  36913-1 0  2582
2 56467  70.0006   7.0636 0003023 269.9831  91.1529 15.02362105    14

Acompanhe STARLINK-6055 em tempo real com AllMySat

Download on the App Store